Regional Weather Roundup
Issued by NWS Kansas City/Pleasant Hill, MO

Home | Current Version | Previous Version | Graphics & Text | Print | Product List | Glossary Off
Versions: 1 2 3 4 5 6 7 8 9 10 11 12 13 14 15 16 17 18 19 20 21 22 23 24 25 26 27 28 29 30 31 32 33 34 35 36 37 38 39 40 41 42 43 44 45 46 47 48 49 50

000
ASUS43 KEAX 162010
RWREAX

WEATHER ROUNDUP FOR EASTERN KANSAS AND NORTHWEST MISSOURI
NATIONAL WEATHER SERVICE KANSAS CITY/PLEASANT HILL MO
300 PM CDT TUE SEP 16 2014

KSZ040-057-103>105-MOZ028-029-037-043-162100-
...KANSAS CITY METROPOLITAN AREA...

CITY           SKY/WX    TMP DP  RH WIND       PRES   REMARKS
K.C. INTL      SUNNY     68  50  52 SE3       30.13F
K.C. DOWNTOWN  SUNNY     71  50  47 CALM      30.12F
LEES SUMMIT    SUNNY     69  51  52 VRB3      30.13F
OLATHE - IXD   SUNNY     71  51  49 SW3       30.13F
OLATHE - OJC   SUNNY     70  53  54 VRB3      30.12F
LAWRENCE       SUNNY     71  51  49 VRB6      30.12F

$$

MOZ001>008-011>017-020>025-030>033-038>040-044>046-053-054-162100-
...NORTHERN AND CENTRAL MISSOURI...

CITY           SKY/WX    TMP DP  RH WIND       PRES   REMARKS
ST. JOSEPH     SUNNY     69  52  54 SE7       30.13F
MOSBY          CLEAR     68  50  52 S3        30.12F
WHITEMAN AFB   MOSUNNY   69  53  58 VRB1      30.13F
CLINTON        SUNNY     72  57  60 CALM      30.13F
SEDALIA        MOSUNNY   70  55  59 N5        30.14F
WARSAW         NOT AVBL
MARSHALL       SUNNY     72  54  53 N3        30.14F
CHILLICOTHE      N/A     67  49  52 CALM      30.15F
MOBERLY        SUNNY     70  48  46 CALM      30.15F
KIRKSVILLE     SUNNY     66  47  50 VRB3      30.15F

$$

MOZ041-047>049-056>058-063>065-088>090-097-162100-
...EASTERN AND SOUTHERN MISSOURI...

CITY           SKY/WX    TMP DP  RH WIND       PRES   REMARKS
ST. LOUIS INTL PTSUNNY   66  53  63 CALM      30.15F
SPIRIT OF STL  PTSUNNY   68  55  63 N5        30.14F
COLUMBIA       SUNNY     68  52  56 CALM      30.14F
JEFFERSON CITY SUNNY     70  53  54 SW6       30.13F
MEXICO         SUNNY     72  55  56 CALM      30.14F
HANNIBAL       SUNNY     70  46  43 CALM      30.14F
ROLLA          PTSUNNY   63  56  78 S5        30.14F
LEBANON        CLOUDY    66  59  77 CALM      30.15F
OSAGE BEACH    PTSUNNY   68  57  68 S7        30.14F
SPRINGFIELD    PTSUNNY   74  59  59 E6        30.12F
BRANSON        CLOUDY    70  63  78 NE6       30.13F
NEVADA         PTSUNNY   68  59  73 SE3       30.14F
JOPLIN         PTSUNNY   72  63  73 CALM      30.12F
WEST PLAINS    CLOUDY    68  57  68 VRB5      30.14F

$$

IAZ060-094-KSZ022-034>040-054-083-096-NEZ052-066-093-162100-
...KANSAS...SOUTHEAST NEBRASKA AND IOWA...

CITY           SKY/WX    TMP DP  RH WIND       PRES   REMARKS
TOPEKA         SUNNY     72  51  47 SW7       30.12F
MANHATTAN      CLOUDY    74  48  39 S8        30.10F
EMPORIA        SUNNY     73  48  41 S3        30.11F
CHANUTE        MOSUNNY   75  61  61 SE8       30.11F
WICHITA        MOSUNNY   78  59  51 VRB6      30.09F
OMAHA          MOSUNNY   67  48  50 SE9       30.11F
LINCOLN        SUNNY     70  47  43 S9        30.10F
FALLS CITY     SUNNY     70  50  49 S7        30.11F
LAMONI         SUNNY     64  47  53 VRB3      30.14F
DES MOINES     SUNNY     66  46  48 S9        30.13F

$$



USA.gov is the U.S. government's official web portal to all federal, state and local government web resources and services.